Zurück zum Katalog

CZ-6A DEB

AktivPO
NORAD 61086·DEBRIS·🇨🇳 China

Gestartet Aug 6, 2024 von Taiyuan Satellite Launch Center

Loading…

Nächste Überflüge (nächste 24 Stunden)

TLE

AktuellSource: Space-Track

Epoche: Sep 14, 2026, 17:38 UTC

1 61086U 24140NC  26257.73494735  .00003305  00000-0  26344-3 0  9999
2 61086  89.0258 258.3655 0179548 193.7839 165.8455 14.88166635110951

Verfolge CZ-6A DEB in Echtzeit mit AllMySat

Download on the App Store